Date String (YYYY-MM-DD hh:mm:ss) UTC,Instrument flags,Ambient pressure (hPa),Sample flow (lpm),Bypass flow (lpm),Sample temperature (°C),Ambient temperature (°C),ASC tube jacket temperature (°C),LED temperature (°C),Box temperature (°C),Sample RH (%),Span deviation,Mass concentration (μg/m³),Mass concentration (μg/m³),Mass concentration (μg/m³)
DateTimeUTC,F1_M11,P_M11,Q1_M11,Q2_M11,T1_M11,T2_M11,T3_M11,T4_M11,T5_M11,U1_M11,ZSPAN_M11,X0_M11,X2_M11,X1_M11
2022-12-04 15:00:00,,0827.5,4.99,0.00,22.2,20.8,00.0,31.1,24.0,14.3,0000.0,0009.95,0003.51,0002.87
2022-12-04 15:01:00,,0827.5,5.00,0.00,22.2,20.8,00.0,31.1,24.0,14.4,0000.0,0010.04,0003.51,0002.87
2022-12-04 15:02:00,,0827.5,5.01,0.00,22.2,20.8,00.0,31.1,24.0,14.4,0000.0,0010.15,0003.50,0002.88
2022-12-04 15:03:00,,0827.6,5.01,0.00,22.2,20.8,00.0,31.1,24.0,14.4,0000.0,0009.73,0003.46,0002.88
2022-12-04 15:04:00,,0827.5,5.01,0.00,22.2,20.8,00.0,31.1,23.9,14.5,0000.0,0009.78,0003.47,0002.88
2022-12-04 15:05:00,,0827.5,4.99,0.00,22.2,20.8,00.0,31.1,23.9,14.5,0000.0,0009.75,0003.49,0002.88
2022-12-04 15:06:00,,0827.5,4.99,0.00,22.2,20.8,00.0,31.1,24.0,14.4,0000.0,0009.08,0003.48,0002.86
2022-12-04 15:07:00,,0827.6,5.00,0.00,22.2,20.8,00.0,31.1,24.0,14.3,0000.0,0008.47,0003.50,0002.85
2022-12-04 15:08:00,,0827.5,5.00,0.00,22.2,20.8,00.0,31.1,24.0,14.4,0000.0,0008.30,0003.47,0002.83
2022-12-04 15:09:00,,0827.5,5.01,0.00,22.1,20.8,00.0,31.1,23.9,14.3,0000.0,0008.35,0003.48,0002.82
2022-12-04 15:10:00,,0827.7,5.00,0.00,22.1,20.8,00.0,31.1,23.9,14.3,0000.0,0008.24,0003.49,0002.82
2022-12-04 15:11:00,,0827.6,4.99,0.00,22.1,20.8,00.0,31.1,23.9,14.3,0000.0,0008.45,0003.49,0002.83
2022-12-04 15:12:00,,0827.7,5.00,0.00,22.2,20.8,00.0,31.1,23.9,14.2,0000.0,0008.42,0003.48,0002.84
2022-12-04 15:13:00,,0827.7,5.01,0.00,22.1,20.8,00.0,31.1,23.9,14.3,0000.0,0008.54,0003.49,0002.84
2022-12-04 15:14:00,,0827.7,5.01,0.00,22.1,20.8,00.0,31.1,23.9,14.2,0000.0,0008.07,0003.51,0002.84
2022-12-04 15:15:00,,0827.7,5.00,0.00,22.1,20.8,00.0,31.1,23.9,14.6,0000.0,0008.07,0003.51,0002.85
2022-12-04 15:16:00,,0827.6,4.99,0.00,22.2,20.8,00.0,31.1,24.0,14.5,0000.0,0007.83,0003.45,0002.84
2022-12-04 15:17:00,,0827.5,4.99,0.00,22.2,20.8,00.0,31.1,24.0,14.3,0000.0,0007.78,0003.44,0002.85
2022-12-04 15:18:00,,0827.5,5.01,0.00,22.2,20.8,00.0,31.1,24.0,14.5,0000.0,0007.54,0003.44,0002.86
2022-12-04 15:19:00,,0827.5,5.01,0.00,22.2,20.8,00.0,31.1,24.0,14.3,0000.0,0007.80,0003.46,0002.86
2022-12-04 15:20:00,,0827.5,4.99,0.00,22.2,20.8,00.0,31.1,24.1,14.6,0000.0,0008.04,0003.43,0002.86
2022-12-04 15:21:00,,0827.6,4.99,0.00,22.2,20.9,00.0,31.1,24.0,14.5,0000.0,0008.03,0003.46,0002.88
2022-12-04 15:22:00,,0827.6,5.00,0.00,22.2,20.9,00.0,31.1,24.0,14.8,0000.0,0008.20,0003.47,0002.86
2022-12-04 15:23:00,,0827.6,5.00,0.00,22.2,20.9,00.0,31.1,24.0,15.0,0000.0,0008.43,0003.47,0002.86
2022-12-04 15:24:00,,0827.6,5.00,0.00,22.2,20.9,00.0,31.1,24.0,14.9,0000.0,0008.12,0003.44,0002.85
2022-12-04 15:25:00,,0827.6,5.00,0.00,22.2,20.9,00.0,31.1,24.1,15.0,0000.0,0008.09,0003.43,0002.86
2022-12-04 15:26:00,,0827.5,5.00,0.00,22.2,20.9,00.0,31.1,24.1,14.7,0000.0,0008.04,0003.42,0002.85
2022-12-04 15:27:00,,0827.5,5.00,0.00,22.2,20.9,00.0,31.1,24.1,14.7,0000.0,0008.04,0003.43,0002.85
2022-12-04 15:28:00,,0827.5,5.00,0.00,22.2,21.0,00.0,31.1,24.1,14.6,0000.0,0008.33,0003.45,0002.86
2022-12-04 15:29:00,,0827.5,5.00,0.00,22.2,21.0,00.0,31.1,24.1,14.8,0000.0,0008.99,0003.46,0002.85
2022-12-04 15:30:00,,0827.5,5.00,0.00,22.2,21.0,00.0,31.1,24.0,14.7,0000.0,0009.04,0003.50,0002.87
2022-12-04 15:31:00,,0827.5,5.00,0.00,22.2,21.0,00.0,31.1,24.0,14.7,0000.0,0008.82,0003.56,0002.87
2022-12-04 15:32:00,,0827.4,5.00,0.00,22.2,21.0,00.0,31.1,24.0,14.7,0000.0,0008.76,0003.54,0002.86
2022-12-04 15:33:00,,0827.4,5.00,0.00,22.2,21.0,00.0,31.1,24.1,14.7,0000.0,0008.13,0003.52,0002.87
2022-12-04 15:34:00,,0827.4,5.00,0.00,22.2,21.0,00.0,31.1,24.1,14.8,0000.0,0007.93,0003.55,0002.88
2022-12-04 15:35:00,,0827.4,5.00,0.00,22.3,21.0,00.0,31.1,24.1,15.2,0000.0,0008.11,0003.60,0002.88
2022-12-04 15:36:00,,0827.5,5.00,0.00,22.3,21.1,00.0,31.1,24.1,15.8,0000.0,0008.68,0003.61,0002.89
2022-12-04 15:37:00,,0827.4,4.99,0.00,22.3,21.1,00.0,31.1,24.1,15.7,0000.0,0009.48,0003.67,0002.91
2022-12-04 15:38:00,,0827.4,5.00,0.00,22.3,21.1,00.0,31.1,24.1,15.6,0000.0,0009.97,0003.74,0002.93
2022-12-04 15:39:00,,0827.4,5.00,0.00,22.3,21.1,00.0,31.2,24.1,15.2,0000.0,0009.79,0003.74,0002.94
2022-12-04 15:40:00,,0827.4,5.00,0.00,22.3,21.1,00.0,31.2,24.1,14.7,0000.0,0009.26,0003.73,0002.93
2022-12-04 15:41:00,,0827.4,5.00,0.00,22.3,21.1,00.0,31.2,24.1,14.7,0000.0,0009.06,0003.72,0002.94
2022-12-04 15:42:00,,0827.4,5.00,0.00,22.3,21.1,00.0,31.2,24.1,14.7,0000.0,0009.05,0003.69,0002.92
2022-12-04 15:43:00,,0827.4,5.00,0.00,22.3,21.2,00.0,31.2,24.1,14.5,0000.0,0009.87,0003.73,0002.93
2022-12-04 15:44:00,,0827.4,5.00,0.00,22.4,21.2,00.0,31.2,24.1,14.7,0000.0,0010.05,0003.76,0002.93
2022-12-04 15:45:00,,0827.4,5.00,0.00,22.4,21.2,00.0,31.2,24.2,15.0,0000.0,0010.18,0003.76,0002.92
2022-12-04 15:46:00,,0827.4,5.00,0.00,22.4,21.2,00.0,31.2,24.2,14.9,0000.0,0010.10,0003.74,0002.93
2022-12-04 15:47:00,,0827.4,5.00,0.00,22.4,21.2,00.0,31.2,24.2,15.0,0000.0,0009.47,0003.71,0002.92
2022-12-04 15:48:00,,0827.4,5.00,0.00,22.4,21.3,00.0,31.2,24.2,15.2,0000.0,0008.74,0003.68,0002.91
2022-12-04 15:49:00,,0827.4,5.00,0.00,22.4,21.3,00.0,31.2,24.2,15.4,0000.0,0008.14,0003.61,0002.88
2022-12-04 15:50:00,,0827.4,5.00,0.00,22.4,21.3,00.0,31.3,24.3,15.4,0000.0,0008.15,0003.62,0002.86
2022-12-04 15:51:00,,0827.4,5.00,0.00,22.5,21.3,00.0,31.3,24.3,15.1,0000.0,0008.09,0003.63,0002.86
2022-12-04 15:52:00,,0827.4,5.00,0.00,22.5,21.4,00.0,31.3,24.3,14.8,0000.0,0008.01,0003.60,0002.86
2022-12-04 15:53:00,,0827.4,5.00,0.00,22.5,21.4,00.0,31.3,24.3,15.0,0000.0,0008.02,0003.61,0002.86
2022-12-04 15:54:00,,0827.3,5.00,0.00,22.5,21.4,00.0,31.3,24.3,14.9,0000.0,0007.10,0003.60,0002.86
2022-12-04 15:55:00,,0827.2,5.00,0.00,22.5,21.4,00.0,31.3,24.3,14.9,0000.0,0006.79,0003.56,0002.85
2022-12-04 15:56:00,,0827.2,5.00,0.00,22.5,21.4,00.0,31.3,24.3,15.0,0000.0,0006.89,0003.53,0002.85
2022-12-04 15:57:00,,0827.4,4.99,0.00,22.6,21.4,00.0,31.4,24.4,15.2,0000.0,0007.22,0003.53,0002.85
2022-12-04 15:58:00,,0827.4,4.99,0.00,22.6,21.5,00.0,31.4,24.4,15.3,0000.0,0007.67,0003.55,0002.83
2022-12-04 15:59:00,,0827.4,5.00,0.00,22.6,21.5,00.0,31.4,24.4,15.2,0000.0,0008.41,0003.51,0002.82
